Location: Sewell
(39.7660°N, 75.1450°W)
Time: 19:25:10
(UTC-05:00)

ISS - Visible Passes

Search period start: 24 November 2014 00:00
Search period end: 04 December 2014 00:00
Orbit: 408 x 417 km, 51.6° (Epoch: 24 November)

Date Brightness Start Highest point End Pass type
(mag) Time Alt. Az. Time Alt. Az. Time Alt. Az.
24 Nov -0.2 04:32:01 11° NE 04:32:01 11° NE 04:32:12 10° NE visible
24 Nov -2.4 06:04:51 11° NW 06:07:53 42° NNE 06:11:02 10° ESE visible
25 Nov -1.7 05:17:19 24° N 05:18:07 27° NNE 05:20:59 10° E visible
26 Nov -0.4 04:29:52 15° ENE 04:29:52 15° ENE 04:30:49 10° ENE visible
26 Nov -3.3 06:02:43 15° WNW 06:05:18 73° SW 06:08:35 10° SE visible
27 Nov -3.1 05:15:23 56° N 05:15:45 61° NE 05:19:00 10° ESE visible
28 Nov -0.4 04:28:10 18° E 04:28:10 18° E 04:29:15 10° E visible
28 Nov -1.9 06:01:02 16° W 06:02:43 24° SW 06:05:27 10° S visible
29 Nov -2.5 05:13:56 40° S 05:13:56 40° S 05:16:32 10° SSE visible
30 Nov -0.1 04:26:58 12° SE 04:26:58 12° SE 04:27:18 10° SE visible
01 Dec -0.6 05:12:59 11° S 05:12:59 11° S 05:13:08 10° S visible
